Preview of NWS' New Version of Forecast
This preview is not operational and should not be used for support decisions.

Regional Weather Roundup (RWR)

Issued by National Weather Service (NWS)

                            
000
ASUS43 KLSX 211557
RWRMO 

WEATHER SUMMARY FOR MISSOURI
NATIONAL WEATHER SERVICE SPRINGFIELD MO
1100 AM CDT SUN JUL 21 2019

NOTE: "FAIR" INDICATES FEW OR NO CLOUDS BELOW 12,000 FEET WITH NO
       SIGNIFICANT WEATHER AND/OR OBSTRUCTIONS TO VISIBILITY.
       CURRENT SKY AND/OR WEATHER CONDITIONS ARE NOT AVAILABLE FOR
       CHILLICOTHE AND FARMINGTON.

MOZ001>031-035>038-043-044-053-054-211700-
...NORTHERN AND WESTERN MISSOURI...
  
CITY           SKY/WX    TMP DP  RH WIND       PRES   REMARKS
KANSAS CTY INT MOSUNNY   80  72  76 E3        29.97S                  
LEE'S SUMMIT   PTSUNNY   77  71  82 E13       29.98R                  
ST JOSEPH      PTSUNNY   75  69  81 N14       30.01R                  
CHILLICOTHE      N/A     76  70  82 NE6       30.02R                  
     
$$
MOZ066>068-077>081-088>096-101>105-211700-
...SOUTHWEST MISSOURI...
  
CITY           SKY/WX    TMP DP  RH WIND       PRES   REMARKS
SPRINGFIELD    SUNNY     85  73  67 CALM      29.99S HX  91           
JOPLIN         SUNNY     87  73  62 S12       29.96F HX  94           
               
$$
MOZ032>034-039>042-045>050-055>058-069>072-211700-
...CENTRAL MISSOURI...  
  
CITY           SKY/WX    TMP DP  RH WIND       PRES   REMARKS
COLUMBIA       NOT AVBL                                               
ROLLA          SUNNY     85  69  58 NE6       30.01S                  
SEDALIA        MOSUNNY   74  71  91 E13G21    30.02S                  
               
$$
MOZ051-052-059>065-211700-
...EAST CENTRAL MISSOURI...
  
CITY           SKY/WX    TMP DP  RH WIND       PRES   REMARKS
ST LOUIS INTL  PTSUNNY   87  72  60 W5        29.96S HX  93           
                   
$$
MOZ072>076-082>087-097>100-106>115-211700-
...SOUTH CENTRAL AND SOUTHEAST MISSOURI...
  
CITY           SKY/WX    TMP DP  RH WIND       PRES   REMARKS
CAPE GIRARDEAU FAIR      86  77  74 SW7       29.95S HX  97           
POPLAR BLUFF   FAIR      87  80  79 S9        29.96S HX 103           
WEST PLAINS    SUNNY     86  74  67 W6        30.02S HX  94           
                                       
$$